OBJECT L, 58927

Orbit data source: Space-Track

You're viewing an Uncataloged Satellite

Recently launched and/or uncataloged satellites may have evolving metadata. Metadata may include but not limited to: Owner, Maufacturer, Bus, Motor, and Mission.

OBJECT L, 58927 is a satellite in SSO that was launched on Sat, 03 Feb 2024 UTC launched from the South China Sea Launch Area (SCSLA). Unknown objects in Earth's orbit typically refer to objects detected orbiting the Earth but have not yet been identified or cataloged. These objects could be anything from previously untracked satellites, spent rocket stages, debris from satellite collisions, or even natural meteoroids temporarily captured by Earth's gravity.

Loading next visibility...
Identifier
58927, 2024-024L
Orbit
SSO
Country
Flag of TBDTBD
Related business
Manufacturer
Changzheng H.
Mission
Spacecraft
Bus & Motor
Unknown
Mass
Unknown
Launch date (UTC)
2024-02-03 (2 years ago)
Launch vehicle
Unknown
Launch site
South China Sea Launch Area (SCSLA)
Object type
Unknown
Shape & HBR
Unknown shape, 0.8 m
Radar Cross Section
Medium (>0.1 m² and <1 m²)

Expand to show TLE details & history
Last TLE update: 22 hours ago

TLE from 22 hours ago
0 OBJECT L
1 58927U 24024L   26172.50613150  .00008774  00000-0  29200-3 0  9994
2 58927  97.3073 239.7029 0007215 159.6666 200.4864 15.31355470109028
Epoch: 2026-06-21T12:08Z
TLE epoch observation values (Epoch: 2026-06-21T12:08:49.761Z)
Latitude
-0.00005°
Longitude
147.79014°
Altitude
479.507 km
Speed
7.623 km/s
True Right ascension
15h 58m 48s
True Declination
0° 00' 00"
Sunlit
Object was in full shadow at epoch
Visualization orbit readout
Latitude
Unknown
Longitude
Unknown
Altitude
Unknown
Speed
Unknown
Apparent Right ascension
Unknown
Apparent Declination
Unknown
Sunlit
N/A
Visualization observer readout
Local Sidereal Time
21:31:52
Azimuth
Unknown
Elevation
Unknown
Doppler factor
Unknown
Orbital elements
Apogee altitude
473.654 km
Perigee altitude
463.774 km
Semi-major axis
6,846.851 km
Eccentricity
0.00072
Inclination
97.3073°
RAAN
239.7029°
Arg. of periapsis
159.6666°
True anomaly
200.45749°
Mean anomaly
200.4864°
Eccentric anomaly
200.47194°
Mean motion
3.83095 °/min
Orbital period
93.97 mins
BSTAR
0.000292
Loading maneuver chart data...
Computing Atmospheric mass density...
Loading historical data...
Loading historical data...
Loading historical data...
Loading historical data...
Loading historical data...
Loading historical data...
Loading historical data...

Documentation

Showing up to 5 results
|